EXPRESS 80

Last updated on Sat Aug 15 2026 00:03:02 GMT+0000 (Coordinated Universal Time)

1 45986U 20053B 26223.88830464 -.00000160 00000+0 00000+0 0 9994 2 45986 0.0329 256.7595 0004491 160.7398 302.5248 1.00310774 22202
UTC large
Height (km)
Speed (km/s)
/
Latitude / Longitude
Inclination (degrees)
Orbital Period (minutes)
Azimuth
Elevation
Range (km)
Doppler Factor

Next 0 passes for location: London (51.5072 / 0.1276)

No passes found over London.
EXPRESS 80